Location: Bednik
(45.3500°N, 16.3833°E)
Time: 06:01:21
(UTC+00:00)

Cosmos 1092 Rocket - Pass Details

Date: 08 August 2020
Orbit: 953 x 996 km, 82.9° (Epoch: 23 September)

Event Time Altitude Azimuth Distance (km) Brightness Sun altitude
Rises 23:43:06 0° 353° (N) 3,692 8.1 -28.1°
Reaches altitude 10° 23:45:39 10° 355° (N) 2,734 7.2 -28.0°
Maximum altitude 23:51:54 72° 80° (E) 1,015 4.0 -27.8°
Enters shadow 23:52:48 62° 133° (SE) 1,078 4.0 -27.7°
